When you browse on this site, cookies collect data to enhance your experience and personalize the content and advertising you see.
Visit our Privacy Policy to learn more. By continuing to use the site, you agree to this use of cookies and data.

Hourly Weather Paine

Today, 7 August, Friday

Time Temperature Precipitation Wind Pressure Humidity
00:00 +12°C° 0 mm 1 mps 728 mmHg 69%
01:00 +11°C° 0 mm 0 mps 728 mmHg 67%
02:00 +11°C° 0 mm 0 mps 728 mmHg 65%
03:00 +11°C° 0 mm 0 mps 728 mmHg 64%
04:00 +10°C° 0 mm 0 mps 728 mmHg 63%
05:00 +10°C° 0 mm 0 mps 728 mmHg 62%
06:00 +11°C° 0 mm 1 mps 728 mmHg 61%
07:00 +11°C° 0 mm 1 mps 728 mmHg 60%
08:00 +13°C° 0 mm 1 mps 728 mmHg 57%
09:00 +16°C° 0 mm 1 mps 728 mmHg 54%
10:00 +19°C° 0 mm 1 mps 729 mmHg 51%
11:00 +19°C° 0 mm 1 mps 729 mmHg 51%
12:00 +20°C° 0 mm 1 mps 729 mmHg 51%
13:00 +21°C° 0 mm 1 mps 729 mmHg 51%
14:00 +20°C° 0 mm 1 mps 728 mmHg 57%
15:00 +20°C° 0 mm 1 mps 728 mmHg 63%
16:00 +17°C° 0 mm 0 mps 728 mmHg 69%
17:00 +16°C° 0 mm 0 mps 728 mmHg 71%
18:00 +15°C° 0 mm 1 mps 728 mmHg 74%
19:00 +14°C° 0 mm 1 mps 729 mmHg 76%
20:00 +13°C° 0 mm 1 mps 729 mmHg 75%
21:00 +12°C° 0 mm 0 mps 729 mmHg 74%
22:00 +12°C° 0 mm 0 mps 728 mmHg 73%
23:00 +11°C° 0 mm 0 mps 729 mmHg 71%

Tomorrow, 8 August, Saturday

Time Temperature Precipitation Wind Pressure Humidity
00:00 +12°C° 0 mm 1 mps 729 mmHg 70%
01:00 +12°C° 0 mm 1 mps 729 mmHg 69%
02:00 +12°C° 0 mm 1 mps 729 mmHg 64%
03:00 +13°C° 0 mm 1 mps 728 mmHg 60%
04:00 +13°C° 0 mm 1 mps 728 mmHg 56%
05:00 +13°C° 0 mm 1 mps 729 mmHg 55%
06:00 +13°C° 0 mm 0 mps 729 mmHg 53%
07:00 +13°C° 0 mm 0 mps 729 mmHg 52%
08:00 +15°C° 0 mm 0 mps 729 mmHg 49%
09:00 +17°C° 0 mm 0 mps 729 mmHg 45%
10:00 +19°C° 0 mm 0 mps 729 mmHg 41%
11:00 +22°C° 0 mm 1 mps 729 mmHg 42%
12:00 +23°C° 0 mm 1 mps 729 mmHg 44%
13:00 +23°C° 0 mm 1 mps 729 mmHg 46%
14:00 +22°C° 0 mm 1 mps 729 mmHg 52%
15:00 +21°C° 0 mm 1 mps 729 mmHg 59%
16:00 +21°C° 0 mm 1 mps 728 mmHg 66%
17:00 +19°C° 0 mm 1 mps 728 mmHg 67%
18:00 +18°C° 0 mm 1 mps 729 mmHg 68%
19:00 +15°C° 0 mm 0 mps 729 mmHg 69%
20:00 +15°C° 0 mm 0 mps 729 mmHg 69%
21:00 +14°C° 0 mm 0 mps 729 mmHg 68%
22:00 +14°C° 0 mm 0 mps 729 mmHg 67%
23:00 +15°C° 0 mm 1 mps 729 mmHg 68%

Day after tomorrow, 9 August, Sunday

Time Temperature Precipitation Wind Pressure Humidity
00:00 +15°C° 0 mm 1 mps 729 mmHg 68%
01:00 +14°C° 0 mm 1 mps 729 mmHg 69%
02:00 +14°C° 0 mm 1 mps 729 mmHg 72%
03:00 +12°C° 0 mm 0 mps 728 mmHg 74%
04:00 +12°C° 0 mm 0 mps 728 mmHg 77%
05:00 +12°C° 0 mm 0 mps 728 mmHg 77%
06:00 +12°C° 0 mm 0 mps 728 mmHg 78%
07:00 +12°C° 0 mm 0 mps 729 mmHg 79%
08:00 +13°C° 0 mm 0 mps 729 mmHg 75%
09:00 +15°C° 0 mm 1 mps 729 mmHg 70%
10:00 +18°C° 0 mm 1 mps 729 mmHg 66%
11:00 +18°C° 0 mm 1 mps 729 mmHg 63%
12:00 +18°C° 0 mm 2 mps 729 mmHg 59%
13:00 +19°C° 0 mm 2 mps 728 mmHg 55%
14:00 +18°C° 0 mm 2 mps 729 mmHg 59%
15:00 +17°C° 0 mm 2 mps 729 mmHg 63%
16:00 +17°C° 0 mm 2 mps 729 mmHg 66%
17:00 +15°C° 0 mm 1 mps 729 mmHg 71%
18:00 +14°C° 0 mm 1 mps 730 mmHg 76%
19:00 +12°C° 0 mm 1 mps 730 mmHg 81%
20:00 +12°C° 0 mm 1 mps 730 mmHg 82%
21:00 +12°C° 0 mm 1 mps 730 mmHg 82%
22:00 +11°C° 0 mm 1 mps 730 mmHg 83%
23:00 +11°C° 0 mm 1 mps 730 mmHg 83%

10 August, Monday

Time Temperature Precipitation Wind Pressure Humidity
00:00 +11°C° 0 mm 1 mps 730 mmHg 84%
01:00 +10°C° 0 mm 1 mps 730 mmHg 84%
02:00 +10°C° 0 mm 1 mps 730 mmHg 84%
03:00 +10°C° 0 mm 1 mps 729 mmHg 85%
04:00 +10°C° 0 mm 1 mps 729 mmHg 85%
05:00 +10°C° 0 mm 1 mps 729 mmHg 83%
06:00 +10°C° 0 mm 1 mps 730 mmHg 81%
07:00 +10°C° 0 mm 1 mps 730 mmHg 80%
08:00 +12°C° 0 mm 1 mps 730 mmHg 73%
09:00 +14°C° 0 mm 2 mps 730 mmHg 66%
10:00 +15°C° 0 mm 2 mps 731 mmHg 59%
11:00 +16°C° 0 mm 2 mps 730 mmHg 56%
12:00 +18°C° 0 mm 2 mps 730 mmHg 52%
13:00 +19°C° 0 mm 2 mps 729 mmHg 48%
14:00 +18°C° 0 mm 2 mps 729 mmHg 52%
15:00 +17°C° 0 mm 2 mps 729 mmHg 56%
16:00 +17°C° 0 mm 2 mps 729 mmHg 60%
17:00 +15°C° 0 mm 2 mps 729 mmHg 62%
18:00 +13°C° 0 mm 2 mps 729 mmHg 65%
19:00 +10°C° 0 mm 2 mps 729 mmHg 67%
20:00 +9°C° 0 mm 2 mps 729 mmHg 65%
21:00 +9°C° 0 mm 2 mps 729 mmHg 63%
22:00 +9°C° 0 mm 2 mps 729 mmHg 61%
23:00 +8°C° 0 mm 2 mps 729 mmHg 60%

11 August, Tuesday

Time Temperature Precipitation Wind Pressure Humidity
00:00 +8°C° 0 mm 2 mps 729 mmHg 59%
01:00 +9°C° 0 mm 1 mps 728 mmHg 59%
02:00 +8°C° 0 mm 1 mps 728 mmHg 57%
03:00 +8°C° 0 mm 1 mps 727 mmHg 56%
04:00 +8°C° 0 mm 1 mps 727 mmHg 55%
05:00 +8°C° 0 mm 1 mps 727 mmHg 53%
06:00 +8°C° 0 mm 1 mps 727 mmHg 51%
07:00 +8°C° 0 mm 1 mps 727 mmHg 49%
08:00 +11°C° 0 mm 1 mps 726 mmHg 46%
09:00 +13°C° 0 mm 1 mps 726 mmHg 43%
10:00 +15°C° 0 mm 1 mps 726 mmHg 39%
11:00 +16°C° 0 mm 1 mps 726 mmHg 41%
12:00 +18°C° 0 mm 1 mps 725 mmHg 43%
13:00 +17°C° 0 mm 2 mps 725 mmHg 45%
14:00 +18°C° 0 mm 1 mps 725 mmHg 50%
15:00 +16°C° 0 mm 1 mps 725 mmHg 55%
16:00 +15°C° 0 mm 1 mps 724 mmHg 61%
17:00 +14°C° 0 mm 1 mps 725 mmHg 65%
18:00 +12°C° 0 mm 1 mps 725 mmHg 70%
19:00 +10°C° 0 mm 1 mps 725 mmHg 75%
20:00 +10°C° 0 mm 1 mps 725 mmHg 76%
21:00 +8°C° 0 mm 0 mps 725 mmHg 76%
22:00 +8°C° 0 mm 0 mps 725 mmHg 77%
23:00 +8°C° 0 mm 0 mps 725 mmHg 77%

12 August, Wednesday

Time Temperature Precipitation Wind Pressure Humidity
00:00 +8°C° 0 mm 0 mps 725 mmHg 76%
01:00 +7°C° 0 mm 0 mps 724 mmHg 76%
02:00 +7°C° 0 mm 0 mps 724 mmHg 77%
03:00 +7°C° 0 mm 0 mps 724 mmHg 78%
04:00 +7°C° 0 mm 0 mps 724 mmHg 80%
05:00 +7°C° 0 mm 0 mps 724 mmHg 80%
06:00 +7°C° 0 mm 0 mps 724 mmHg 81%
07:00 +7°C° 0 mm 0 mps 724 mmHg 82%
08:00 +9°C° 0 mm 1 mps 724 mmHg 77%
09:00 +10°C° 0 mm 1 mps 724 mmHg 72%
10:00 +12°C° 0 mm 2 mps 723 mmHg 68%
11:00 +12°C° 0 mm 2 mps 723 mmHg 67%
12:00 +12°C° 0 mm 2 mps 723 mmHg 67%
13:00 +13°C° 0 mm 2 mps 722 mmHg 67%
14:00 +12°C° 0 mm 2 mps 723 mmHg 69%
15:00 +10°C° 0 mm 2 mps 723 mmHg 72%
16:00 +11°C° 0 mm 1 mps 724 mmHg 75%
17:00 +10°C° 0 mm 1 mps 724 mmHg 77%
18:00 +9°C° 0 mm 1 mps 725 mmHg 80%
19:00 +8°C° 0 mm 1 mps 725 mmHg 83%
20:00 +8°C° 0 mm 1 mps 725 mmHg 84%
21:00 +8°C° 0 mm 1 mps 726 mmHg 85%
22:00 +7°C° 0 mm 0 mps 726 mmHg 87%
23:00 +6°C° 0 mm 0 mps 726 mmHg 86%
Show more